Regional Weather Roundup
Issued by NWS

Home | Current Version | Previous Version | Graphics & Text | Print | Product List | Glossary On
Versions: 1 2 3 4 5 6 7 8 9 10 11 12 13 14 15 16 17 18 19 20 21 22 23 24 25 26 27 28 29 30 31 32 33 34 35 36 37 38 39 40 41 42 43 44 45 46 47 48 49 50
000
ASUS43 KBIS 010102
RWRND

NORTH DAKOTA REGIONAL WEATHER ROUNDUP
NATIONAL WEATHER SERVICE BISMARCK ND
800 PM CDT TUE JUN 30 2015

NOTE: "FAIR" INDICATES FEW OR NO CLOUDS BELOW 12,000 FEET WITH NO
SIGNIFICANT WEATHER AND/OR OBSTRUCTIONS TO VISIBILITY.


NDZ001>003-009>011-017-010200-
NORTHWEST NORTH DAKOTA

CITY           SKY/WX    TMP DP  RH WIND       PRES   REMARKS
WILLISTON      MOSUNNY   68  58  70 E16G25    29.90R
MINOT          CLOUDY    67  63  87 CALM      29.91R FOG
MINOT AFB      LGT RAIN  68  68 100 N6        29.90R FOG
$$

NDZ018>021-031>035-040>046-010200-
SOUTHWEST NORTH DAKOTA

CITY           SKY/WX    TMP DP  RH WIND       PRES   REMARKS
BISMARCK       CLOUDY    71  63  75 E9        29.88F
DICKINSON      CLOUDY    70  59  68 E9        29.86R
GARRISON         N/A     67  63  87 NE10      29.89F
HETTINGER ARPT MOSUNNY   75  64  68 SE13      29.86S
$$

NDZ004>008-012>016-024-026-027-054-010200-
NORTHEAST NORTH DAKOTA

CITY           SKY/WX    TMP DP  RH WIND       PRES   REMARKS
GRAND FORKS    CLOUDY    72  58  61 SE5       29.90F
GRND FRKS AFB  CLOUDY    70  61  72 S5        29.91F
DEVILS LAKE    CLOUDY    66  59  77 E8        29.91R
$$

NDZ022-023-025-028>030-036>039-047>053-010200-
SOUTHEAST NORTH DAKOTA

CITY           SKY/WX    TMP DP  RH WIND       PRES   REMARKS
FARGO          CLOUDY    71  63  75 E5        29.89F
JAMESTOWN      CLOUDY    69  60  73 E8        29.90S
$$




USA.gov is the U.S. government's official web portal to all federal, state and local government web resources and services.